This is the latest recevied weather packets stored in our database for station/object DL6MM-4. If no packets are shown the sender has not sent any weather packets the latest 10 day(s).
| Time | Temp. | Humidity | Pressure | Rain* | Wind** | Luminosity | Snow |
|---|---|---|---|---|---|---|---|
| 1778231957 | 12.78° C | 75% | 1017.9 hPa | 0 mm | - | - | - |
| 1778231357 | 12.78° C | 76% | 1017.9 hPa | 0 mm | - | - | - |
| 1778230757 | 12.22° C | 77% | 1018 hPa | 0 mm | - | - | - |
| 1778230157 | 12.22° C | 77% | 1018 hPa | 0 mm | - | - | - |
| 1778229557 | 12.22° C | 77% | 1018 hPa | 0 mm | - | - | - |
| 1778228957 | 11.67° C | 80% | 1018 hPa | 0 mm | - | - | - |
| 1778228357 | 11.11° C | 82% | 1017.9 hPa | 0 mm | - | - | - |
| 1778227757 | 10.56° C | 82% | 1017.7 hPa | 0 mm | - | - | - |
| 1778227157 | 10.56° C | 83% | 1017.7 hPa | 0 mm | - | - | - |
| 1778226557 | 10.56° C | 82% | 1017.7 hPa | 0 mm | - | - | - |
| 1778225957 | 10.56° C | 81% | 1017.7 hPa | 0 mm | - | - | - |
| 1778225357 | 11.11° C | 84% | 1017.9 hPa | 0 mm | - | - | - |
| 1778224757 | 10.56° C | 84% | 1017.7 hPa | 0 mm | - | - | - |
| 1778224157 | 10.56° C | 84% | 1017.6 hPa | 0 mm | - | - | - |
| 1778223557 | 10.56° C | 87% | 1017.5 hPa | 0 mm | - | - | - |
| 1778222957 | 10.56° C | 88% | 1017.4 hPa | 0 mm | - | - | - |
| 1778222357 | 10° C | 88% | 1017.2 hPa | 0 mm | - | - | - |
| 1778221757 | 9.44° C | 87% | 1017.2 hPa | 0 mm | - | - | - |
| 1778221157 | 8.89° C | 87% | 1017.2 hPa | 0 mm | - | - | - |
| 1778220557 | 8.89° C | 87% | 1017.2 hPa | 0 mm | - | - | - |
| 1778219957 | 8.33° C | 85% | 1017.1 hPa | 0 mm | - | - | - |
| 1778219357 | 8.33° C | 86% | 1017 hPa | 0 mm | - | - | - |
| 1778218757 | 7.78° C | 86% | 1017 hPa | 0 mm | - | - | - |
| 1778218157 | 7.78° C | 86% | 1017 hPa | 0 mm | - | - | - |
| 1778217557 | 7.78° C | 86% | 1016.9 hPa | 0 mm | - | - | - |
* Rain latest hour (hover to see other rain measurements)
** Current wind speed in m/s (hover to see current wind gust speed)